Weather History for Shirley, NY

Change the Weather History Date:

Wednesday, April 10, 2013

  Actual Average (KISP) Record (KISP)
Temperature  
Mean Temperature 60 °F 47 °F  
Max Temperature 70 °F 56 °F 77 °F (1991)
Min Temperature 50 °F 39 °F 27 °F (1997)
Degree Days  
Heating Degree Days 6 18  
Month to date heating degree days 192  
Since 1 July heating degree days 4884  
Cooling Degree Days 0 0  
Month to date cooling degree days 0  
Year to date cooling degree days 0  
Growing Degree Days 10 (Base 50)    
Moisture  
Dew Point 47 °F    
Average Humidity 72    
Maximum Humidity 97    
Minimum Humidity 51    
Precipitation  
Precipitation 0.13 in 0.15 in 0.77 in (1998)
Month to date precipitation 1.51  
Year to date precipitation 12.85  
Snow  
Snow 0.00 in 0.00 in - ()
Month to date snowfall 0.3  
Since 1 July snowfall 24.5  
Snow Depth -    
Sea Level Pressure  
Sea Level Pressure 29.91 in    
Wind  
Wind Speed 5 mph (SE)    
Max Wind Speed 15 mph    
Max Gust Speed 38 mph    
Visibility 9 miles    
Events Rain    
T = Trace of Precipitation, MM = Missing Value Source: NWS Daily Summary

Daily Weather History Graph

Daily Weather History Graph

Search for Another Location

Airport:

Trip Planner

Search our weather history database for the weather conditions in past years. The results will help you decide how hot, cold, wet, or windy it might be!

Date:

Astronomy

Apr. 10, 2013 Rise Set
Actual Time 6:20 AM EDT 7:26 PM EDT
Civil Twilight 5:51 AM EDT 7:54 PM EDT
Nautical Twilight 5:18 AM EDT 8:27 PM EDT
Astronomical Twilight 4:43 AM EDT 9:03 PM EDT
Moon 6:14 AM EDT (4/10) 7:59 PM EDT (4/10)
Length of Visible Light 14h 02m
Length of Day
13h 05m
Waxing Crescent, 0% of the Moon is Illuminated
Apr 10
Waxing Crescent
Apr 18
First Quarter
Apr 25
Full
May 2
Last Quarter
May 9
New

Hourly Weather History & Observations

Time (EDT) Temp. Dew Point Humidity Pressure Visibility Wind Dir Wind Speed Gust Speed Precip Events Conditions
12:56 AM 51.1 °F 44.1 °F 77% 29.92 in 9.0 mi Calm Calm - N/A   Partly Cloudy
1:56 AM 52.0 °F 46.0 °F 80% 29.89 in 9.0 mi SE 3.5 mph - N/A   Overcast
2:56 AM 54.0 °F 46.9 °F 77% 29.85 in 10.0 mi South 6.9 mph - N/A   Scattered Clouds
3:56 AM 57.0 °F 48.9 °F 74% 29.88 in 10.0 mi Variable 3.5 mph 33.4 mph N/A   Mostly Cloudy
4:56 AM 53.1 °F 43.0 °F 69% 29.88 in 10.0 mi NNE 4.6 mph - N/A   Scattered Clouds
5:56 AM 51.1 °F 43.0 °F 74% 29.90 in 10.0 mi Calm Calm - N/A   Clear
6:56 AM 50.0 °F 43.0 °F 77% 29.93 in 10.0 mi Calm Calm - N/A   Clear
7:56 AM 52.0 °F 45.0 °F 77% 29.93 in 10.0 mi Calm Calm - N/A   Clear
8:56 AM 55.9 °F 45.0 °F 67% 29.95 in 10.0 mi NNW 8.1 mph - N/A   Clear
9:56 AM 57.0 °F 45.0 °F 64% 29.94 in 10.0 mi North 10.4 mph - N/A   Clear
10:56 AM 63.0 °F 48.0 °F 58% 29.95 in 10.0 mi North 9.2 mph - N/A   Clear
11:56 AM 66.0 °F 51.1 °F 59% 29.95 in 10.0 mi NNW 11.5 mph - N/A   Clear
12:56 PM 66.0 °F 48.9 °F 54% 29.95 in 10.0 mi Variable 6.9 mph - N/A   Scattered Clouds
1:56 PM 69.1 °F 50.0 °F 51% 29.95 in 10.0 mi North 3.5 mph - N/A   Clear
2:56 PM 64.0 °F 46.9 °F 54% 29.94 in 10.0 mi SSE 6.9 mph - N/A   Clear
3:56 PM 59.0 °F 46.0 °F 62% 29.92 in 10.0 mi SE 9.2 mph - N/A   Clear
4:56 PM 55.9 °F 45.0 °F 67% 29.92 in 10.0 mi SSE 15.0 mph - N/A   Clear
5:56 PM 53.1 °F 44.1 °F 71% 29.89 in 10.0 mi SSE 13.8 mph - N/A   Clear
6:56 PM 51.1 °F 45.0 °F 80% 29.88 in 10.0 mi SE 6.9 mph - N/A   Clear
7:56 PM 53.1 °F 46.0 °F 77% 29.97 in 10.0 mi West 10.4 mph 38.0 mph N/A   Squalls
8:56 PM 52.0 °F 48.0 °F 86% 29.82 in 5.0 mi SE 8.1 mph - 0.06 in Rain Rain
9:56 PM 52.0 °F 48.0 °F 86% 29.86 in 9.0 mi SE 4.6 mph - 0.00 in   Overcast
10:56 PM 52.0 °F 48.9 °F 89% 29.86 in 10.0 mi South 5.8 mph - N/A   Scattered Clouds
11:56 PM 52.0 °F 51.1 °F 97% 29.89 in 3.0 mi Calm Calm - 0.07 in Rain Rain